Change the Weather History Date:

Friday, February 1, 2013

  Actual Average Record
Temperature  
Mean Temperature 63 °F -  
Max Temperature 72 °F - - ()
Min Temperature 54 °F - - ()
Degree Days  
Heating Degree Days 2    
Growing Degree Days 13 (Base 50)    
Moisture  
Dew Point 52 °F    
Average Humidity 67    
Maximum Humidity 89    
Minimum Humidity 47    
Precipitation  
Precipitation 0.00 in - - ()
Sea Level Pressure  
Sea Level Pressure 30.26 in    
Wind  
Wind Speed 8 mph (ESE)    
Max Wind Speed 15 mph    
Max Gust Speed 21 mph    
Visibility 10 miles    
Events      
T = Trace of Precipitation, MM = Missing Value Source: NWS Daily Summary

Daily Weather History Graph

Daily Weather History Graph

Search for Another Location

Airport or City:

Trip Planner

Search our weather history database for the weather conditions in past years. The results will help you decide how hot, cold, wet, or windy it might be!

Date:

Astronomy

Feb. 01, 2013 Rise Set
Actual Time 7:13 AM CST 6:12 PM CST
Civil Twilight 6:49 AM CST 6:36 PM CST
Nautical Twilight 6:21 AM CST 7:04 PM CST
Astronomical Twilight 5:54 AM CST 7:31 PM CST
Moon 11:39 PM CST (2/1) 10:26 AM CST (2/1)
Length of Visible Light 11h 47m
Length of Day
10h 59m
Waning Gibbous, 70% of the Moon is Illuminated
Feb 1
Waning Gibbous
Feb 3
Last Quarter
Feb 10
New
Feb 17
First Quarter
Feb 25
Full

Hourly Weather History & Observations

Time (CST) Temp. Dew Point Humidity Pressure Visibility Wind Dir Wind Speed Gust Speed Precip Events Conditions
12:53 AM 54.0 °F 48.0 °F 80% 30.27 in 10.0 mi ESE 5.8 mph - N/A   Clear
1:53 AM 55.9 °F 50.0 °F 80% 30.26 in 10.0 mi ESE 6.9 mph - N/A   Clear
2:53 AM 55.0 °F 48.9 °F 80% 30.26 in 10.0 mi East 5.8 mph - N/A   Clear
3:53 AM 55.9 °F 51.1 °F 84% 30.26 in 10.0 mi East 6.9 mph - N/A   Clear
4:53 AM 55.0 °F 52.0 °F 89% 30.27 in 10.0 mi East 6.9 mph - N/A   Clear
5:53 AM 57.9 °F 54.0 °F 87% 30.28 in 10.0 mi East 6.9 mph - N/A   Clear
6:53 AM 57.9 °F 53.1 °F 84% 30.29 in 10.0 mi East 8.1 mph - N/A   Clear
7:53 AM 59.0 °F 53.1 °F 81% 30.30 in 9.0 mi East 5.8 mph - N/A   Clear
8:53 AM 66.0 °F 54.0 °F 65% 30.32 in 10.0 mi ESE 8.1 mph - N/A   Clear
9:53 AM 69.1 °F 51.1 °F 53% 30.33 in 10.0 mi ESE 11.5 mph - N/A   Clear
10:53 AM 71.1 °F 51.1 °F 49% 30.33 in 10.0 mi ESE 12.7 mph - N/A   Clear
11:53 AM 71.1 °F 50.0 °F 47% 30.31 in 9.0 mi ESE 15.0 mph - N/A   Clear
12:53 PM 72.0 °F 51.1 °F 48% 30.29 in 10.0 mi ESE 15.0 mph 20.7 mph N/A   Clear
2:53 PM 71.1 °F 50.0 °F 47% 30.23 in 10.0 mi East 12.7 mph - N/A   Overcast
3:53 PM 70.0 °F 48.9 °F 47% 30.23 in 10.0 mi ESE 10.4 mph - N/A   Overcast
4:53 PM 69.1 °F 51.1 °F 53% 30.21 in 10.0 mi ESE 12.7 mph - N/A   Overcast
5:53 PM 68.0 °F 52.0 °F 56% 30.21 in 9.0 mi ESE 10.4 mph - N/A   Overcast
6:53 PM 68.0 °F 54.0 °F 61% 30.22 in 10.0 mi ESE 8.1 mph - N/A   Overcast
7:53 PM 66.9 °F 55.0 °F 66% 30.22 in 10.0 mi ESE 6.9 mph - N/A   Overcast
8:53 PM 66.9 °F 55.9 °F 68% 30.23 in 10.0 mi ESE 9.2 mph - N/A   Overcast
9:53 PM 66.9 °F 55.9 °F 68% 30.24 in 10.0 mi SE 8.1 mph - N/A   Overcast
10:53 PM 66.9 °F 57.0 °F 70% 30.22 in 10.0 mi ESE 8.1 mph - N/A   Overcast
11:53 PM 66.9 °F 57.0 °F 70% 30.21 in 10.0 mi SE 6.9 mph - N/A   Overcast